Hourly Weather Roundup
Issued by NWS Central Illinois

Home | Current Version | Previous Version | Text Only | Print | Product List | Glossary On
Versions: 1 2 3 4 5 6 7 8 9 10 11 12 13 14 15 16 17 18 19 20 21 22 23 24 25 26 27 28 29 30 31 32 33 34 35 36 37 38 39 40 41 42 43 44 45 46 47 48 49 50
000
NZUS43 KILX 180510
HWRILX

Area Weather Roundup
National Weather Service Lincoln IL
1200 AM CDT FRI AUG 18 2017

NOTE:  "FAIR" indicates few or no clouds below 12,000 feet, with
       no sigificant weather and/or obstructions to visibility.


CITY           SKY/WX    TMP DP  RH WIND       PRES   REMARKS
Bloomington    MOCLDY    70  63  78 W7        29.87F
Champaign      CLEAR     67  65  93 SW5       29.87S
Danville       MOCLDY    72  66  83 W7        29.84R
Decatur        CLEAR     72  66  81 W7        29.88S
Effingham      CLEAR     72  67  85 SW7       29.90F
Flora          CLEAR     73  68  84 W3        29.89F
Galesburg      CLEAR     67  63  85 W5        29.87F
Jacksonville   PTCLDY    65  62  90 CALM      29.88S
Lacon          CLEAR     70  64  83 W6        29.84R
Lawrenceville  PTCLDY    75  70  84 W3        29.87F
Litchfield     CLEAR     68  64  88 W6        29.90S
$$


CITY           SKY/WX    TMP DP  RH WIND       PRES   REMARKS
Lincoln        CLEAR     69  67  94 CALM      29.87S
Macomb         MOCLDY    65  63  93 W5        29.90S
Mattoon        CLEAR     72  67  84 SW7       29.87S
Mt Carmel AP   CLEAR     72  70  93 W3        29.87F
Olney-Noble AP CLEAR     72  69  92 W5        29.88F
Paris AP       CLEAR     69  66  91 W9        29.87S
Peoria         CLEAR     70  63  78 W5        29.86S
Pontiac        CLOUDY    71  67  88 W8        29.85S
Rantoul        PTCLDY    72  68  88 W6        29.86S
Robinson       PTCLDY    71  68  92 W6        29.88S
Springfield    PTCLDY    69  66  90 SW5       29.88S
Taylorville    CLEAR     69  66  90 W6        29.88S
$$

...REGIONAL REPORTS...


CITY           SKY/WX    TMP DP  RH WIND       PRES   REMARKS
Chicago O`Hare PTCLDY    73  63  70 W9        29.77S
Kankakee       MOCLDY    68  64  88 W7        29.83S
Moline         CLEAR     70  63  78 W10G18    29.85S
Mount Sterling PTCLDY    68  61  79 W6        29.89S
Mount Vernon   CLEAR     71  67  87 W3        29.90F
Pittsfield     CLEAR     70  62  77 W3        29.91S
Quincy         CLEAR     67  61  81 SW3       29.90S
Rockford       MOCLDY    70  64  81 W12       29.80S
$$


CITY           SKY/WX    TMP DP  RH WIND       PRES   REMARKS
Burlington     PTCLDY    69  63  81 W3        29.87F
Cedar Rapids   CLEAR     63  62  97 W6        29.86S
Des Moines     CLEAR     68  61  78 SW5       29.90R
Kirksville     CLEAR     66  61  84 W5        29.93F
Ottumwa        CLEAR     65  61  87 W6        29.89R
St Louis       CLEAR     73  65  75 W9        29.91F
$$


CITY           SKY/WX    TMP DP  RH WIND       PRES   REMARKS
Terre Haute    CLEAR     70  66  87 W5        29.86F
Evansville     MOCLDY    76  71  85 SW8       29.89S
Indianapolis   PTCLDY    72  68  87 SW7       29.85S
Lafayette      MOCLDY    69  67  93 W7        29.83S
Madison        CLOUDY    67  61  81 W3        29.76S
Milwaukee      CLOUDY    70  62  76 W15       29.72S
$$






USA.gov is the U.S. government's official web portal to all federal, state and local government web resources and services.